Regional Weather Roundup
Issued by NWS

Home | Current Version | Previous Version | Text Only | Print | Product List | Glossary Off
Versions: 1 2 3 4 5 6 7 8 9 10 11 12 13 14 15 16 17 18 19 20 21 22 23 24 25 26 27 28 29 30 31 32 33 34 35 36 37 38 39 40 41 42 43 44 45 46 47 48 49 50

000
ASUS45 KCYS 012310
RWRWY

WYOMING REGIONAL WEATHER ROUNDUP
NATIONAL WEATHER SERVICE CHEYENNE WY
500 PM MDT SUN MAY 01 2016

NOTE:  "FAIR" INDICATES FEW OR NO CLOUDS BELOW 12,000 FEET
WITH NO SIGNIFICANT WEATHER AND/OR OBSTRUCTIONS TO VISIBILITY.

WYZ001-020000-
YELLOWSTONE NATIONAL PARK

CITY           SKY/WX    TMP DP  RH WIND       PRES   REMARKS
LK YELLOWSTONE   N/A     46  12  25 S3        30.26F
W YELLOWSTONE  NOT AVBL

$$
WYZ002>013-054>058-071-098>099-020000-
NORTHERN WYOMING

CITY           SKY/WX    TMP DP  RH WIND       PRES   REMARKS
JACKSON        SUNNY     55  18  22 NE17      30.16F
CODY           FAIR      55  25  30 S3        30.22F
GREYBULL       FAIR      60  23  24 SE6       30.20F
WORLAND        FAIR      57  27  31 SW8       30.22F
SHERIDAN       FAIR      61  26  26 VRB6      30.22F
BUFFALO          N/A    N/A N/A N/A MISG      30.24F
GILLETTE       FAIR      54  27  35 MISG      30.23F
HULETT         FAIR      55  28  35 N7        30.25S
NEWCASTLE      FAIR      57  21  24 W9        30.21F

$$
WYZ014>020-022>026-101>103-020000-
CENTRAL WYOMING

CITY           SKY/WX    TMP DP  RH WIND       PRES   REMARKS
BIG PINEY      FAIR      51  17  26 CALM      30.18F
PINEDALE       FAIR      50  14  23 NE12G17   30.19F
DUBOIS         NOT AVBL
LANDER         PTSUNNY   47  26  44 N6        30.25F
RIVERTON       CLOUDY    49  27  42 VRB7      30.26F
CASPER         FAIR      49  24  37 NE7       30.23F
DOUGLAS        FAIR      51  28  41 E6        30.25F

$$
WYZ021-027>030-104>119-020000-
SOUTHERN WYOMING

CITY           SKY/WX    TMP DP  RH WIND       PRES   REMARKS
EVANSTON       FAIR      43  21  41 E26G37    30.15F
KEMMERER         N/A     45  19  36 E22G31    30.19S
FORT BRIDGER   CLOUDY    43  27  52 SE17G23   30.22S
ROCK SPRINGS   PTSUNNY   46  23  40 E24G36    30.18F
DIXON          FAIR      54  23  30 SE9       30.10F
RAWLINS        FAIR      43  24  47 E24G30    30.20F
SARATOGA       FAIR      45  27  49 E3        30.18S
LARAMIE        CLOUDY    35  21  56 E3        30.24S
CHEYENNE       PTSUNNY   38  22  52 N7        30.26S WCI  33
TORRINGTON     PTSUNNY   53  24  32 NW7       30.22F
PINE BLUFFS    FAIR      43  27  52 N7        30.26F

$$



USA.gov is the U.S. government's official web portal to all federal, state and local government web resources and services.